Weather History for KHYR - December, 2012

Change the Weather History Date:

Monday, December 10, 2012

  Actual Average Record
Temperature  
Mean Temperature 20 °F -  
Max Temperature 27 °F 29 °F 45 °F (2006)
Min Temperature 12 °F 11 °F -16 °F (2000)
Degree Days  
Heating Degree Days 46    
Moisture  
Dew Point 14 °F    
Average Humidity 83    
Maximum Humidity 93    
Minimum Humidity 77    
Precipitation  
Precipitation 0.01 in - - ()
Sea Level Pressure  
Sea Level Pressure 29.87 in    
Wind  
Wind Speed 2 mph (West)    
Max Wind Speed 5 mph    
Max Gust Speed -    
Visibility 6 miles    
Events Snow    
Averages and records for this station are not official NWS values.
T = Trace of Precipitation, MM = Missing Value Source: NWS Daily Summary

Daily Weather History Graph

Daily Weather History Graph

Search for Another Location

Airport or City:

Trip Planner

Search our weather history database for the weather conditions in past years. The results will help you decide how hot, cold, wet, or windy it might be!

Date:

Astronomy

Dec. 10, 2012 Rise Set
Actual Time 7:37 AM CST 4:20 PM CST
Civil Twilight 7:02 AM CST 4:54 PM CST
Nautical Twilight 6:24 AM CST 5:32 PM CST
Astronomical Twilight 5:48 AM CST 6:08 PM CST
Moon 4:14 AM CST (12/10) 2:15 PM CST (12/10)
Length of Visible Light 9h 51m
Length of Day
8h 43m
Waning Crescent, 10% of the Moon is Illuminated
Dec 10
Waning Crescent
Dec 13
New
Dec 19
First Quarter
Dec 28
Full
Jan 4
Last Quarter

Hourly Weather History & Observations

Time (CST) Temp. Windchill Dew Point Humidity Pressure Visibility Wind Dir Wind Speed Gust Speed Precip Events Conditions
12:33 AM 26.6 °F - 24.8 °F 93% 29.82 in 2.5 mi Calm Calm - 0.01 in Snow Light Snow
12:53 AM 27.0 °F - 24.1 °F 89% 29.88 in 4.0 mi Calm Calm - 0.01 in Snow Light Snow
1:28 AM 26.6 °F 22.6 °F 24.8 °F 93% 29.82 in 2.5 mi Variable 3.5 mph - 0.00 in Snow Light Snow
1:39 AM 26.6 °F - 24.8 °F 93% 29.82 in 1.5 mi Calm Calm - 0.00 in Snow Light Snow
1:53 AM 27.0 °F 23.0 °F 24.1 °F 89% 29.88 in 2.0 mi Variable 3.5 mph - 0.00 in Snow Light Snow
2:08 AM 26.6 °F 21.2 °F 23.0 °F 86% 29.83 in 3.0 mi Variable 4.6 mph - 0.00 in Snow Light Snow
2:16 AM 26.6 °F - 23.0 °F 86% 29.83 in 2.5 mi Calm Calm - 0.00 in Snow Light Snow
2:19 AM 26.6 °F 21.2 °F 21.2 °F 80% 29.83 in 3.0 mi Variable 4.6 mph - 0.00 in Snow Light Snow
2:53 AM 24.1 °F 18.2 °F 21.0 °F 88% 29.89 in 10.0 mi Variable 4.6 mph - 0.00 in   Overcast
3:53 AM 21.9 °F 15.7 °F 19.0 °F 89% 29.89 in 7.0 mi NNW 4.6 mph - 0.00 in Snow Light Snow
4:53 AM 19.9 °F 14.9 °F 16.0 °F 85% 29.90 in 4.0 mi Variable 3.5 mph - 0.00 in Snow Light Snow
5:20 AM 19.4 °F 14.3 °F 15.8 °F 86% 29.83 in 6.0 mi NW 3.5 mph - 0.00 in Snow Light Snow
5:53 AM 17.1 °F 10.0 °F 12.9 °F 84% 29.91 in 10.0 mi Variable 4.6 mph - 0.00 in   Overcast
6:17 AM 15.8 °F 10.2 °F 10.4 °F 79% 29.85 in 10.0 mi Variable 3.5 mph - N/A   Overcast
6:53 AM 15.1 °F - 10.9 °F 84% 29.92 in 5.0 mi Calm Calm - 0.00 in Snow Light Snow
7:09 AM 15.8 °F - 10.4 °F 79% 29.85 in 6.0 mi Calm Calm - 0.00 in Snow Light Snow
7:53 AM 15.1 °F - 10.9 °F 84% 29.91 in 8.0 mi Calm Calm - 0.00 in Snow Light Snow
8:53 AM 15.1 °F - 10.9 °F 84% 29.92 in 6.0 mi Calm Calm - 0.00 in Snow Light Snow
9:25 AM 15.8 °F 10.2 °F 10.4 °F 79% 29.86 in 4.0 mi Variable 3.5 mph - 0.00 in Snow Light Snow
9:37 AM 15.8 °F 10.2 °F 10.4 °F 79% 29.86 in 2.5 mi WNW 3.5 mph - 0.00 in Snow Light Snow
9:48 AM 15.8 °F 10.2 °F 10.4 °F 79% 29.86 in 1.5 mi West 3.5 mph - 0.00 in Snow Light Snow
10:04 AM 15.8 °F - 10.4 °F 79% 29.86 in 2.0 mi Calm Calm - 0.00 in Snow Light Snow
10:20 AM 15.8 °F 8.6 °F 10.4 °F 79% 29.87 in 3.0 mi West 4.6 mph - 0.00 in Snow Light Snow
10:36 AM 15.8 °F - 10.4 °F 79% 29.87 in 2.0 mi Calm Calm - 0.00 in Snow Light Snow
10:46 AM 15.8 °F - 10.4 °F 79% 29.87 in 1.5 mi Calm Calm - 0.00 in Snow Light Snow
10:51 AM 15.8 °F - 10.4 °F 79% 29.87 in 1.0 mi Calm Calm - 0.00 in Snow Light Snow
10:53 AM 17.1 °F - 12.0 °F 81% 29.93 in 1.0 mi Calm Calm - 0.00 in Snow Light Snow
11:04 AM 15.8 °F - 10.4 °F 79% 29.86 in 0.8 mi Calm Calm - 0.00 in Snow Light Snow
11:14 AM 15.8 °F 8.6 °F 10.4 °F 79% 29.86 in 1.2 mi WNW 4.6 mph - 0.00 in Snow Light Snow
11:26 AM 17.6 °F - 12.2 °F 79% 29.86 in 2.5 mi Calm Calm - 0.00 in Snow Light Snow
11:33 AM 17.6 °F - 12.2 °F 79% 29.86 in 4.0 mi Calm Calm - 0.00 in Snow Light Snow
11:53 AM 17.1 °F 10.0 °F 12.0 °F 81% 29.91 in 6.0 mi West 4.6 mph - 0.00 in Snow Light Snow
12:53 PM 19.0 °F - 12.9 °F 77% 29.90 in 8.0 mi Calm Calm - 0.00 in   Overcast
1:23 PM 19.4 °F - 14.0 °F 80% 29.83 in 10.0 mi Calm Calm - N/A   Overcast
1:53 PM 19.9 °F - 15.1 °F 81% 29.88 in 10.0 mi Calm Calm - N/A   Overcast
2:53 PM 19.9 °F 13.4 °F 14.0 °F 78% 29.88 in 10.0 mi Variable 4.6 mph - N/A   Overcast
3:53 PM 18.0 °F - 12.9 °F 81% 29.90 in 10.0 mi Calm Calm - N/A   Overcast
4:53 PM 17.1 °F - 12.9 °F 84% 29.90 in 10.0 mi Calm Calm - N/A   Overcast
5:33 PM 17.6 °F - 12.2 °F 79% 29.84 in 10.0 mi Calm Calm - N/A   Overcast
5:53 PM 17.1 °F 11.7 °F 12.9 °F 84% 29.92 in 10.0 mi West 3.5 mph - N/A   Overcast
6:41 PM 17.6 °F - 12.2 °F 79% 29.85 in 10.0 mi Calm Calm - N/A   Overcast
6:53 PM 17.1 °F - 12.9 °F 84% 29.93 in 10.0 mi Calm Calm - N/A   Overcast
7:53 PM 16.0 °F 10.4 °F 12.9 °F 88% 29.93 in 10.0 mi SW 3.5 mph - N/A   Overcast
8:53 PM 15.1 °F - 10.9 °F 84% 29.92 in 10.0 mi Calm Calm - N/A   Overcast
9:53 PM 14.0 °F 8.2 °F 10.9 °F 88% 29.91 in 10.0 mi SSW 3.5 mph - N/A   Overcast
10:53 PM 14.0 °F 8.2 °F 10.0 °F 84% 29.90 in 10.0 mi Variable 3.5 mph - N/A   Overcast
11:31 PM 12.2 °F 6.1 °F 8.6 °F 85% 29.82 in 10.0 mi SSE 3.5 mph - N/A   Scattered Clouds
11:53 PM 12.0 °F 5.9 °F 9.0 °F 88% 29.89 in 10.0 mi Variable 3.5 mph - N/A   Partly Cloudy